Tracking 25711 objects as of 23-May-2022
HD Live streaming from Space Station
objects crossing your sky now

ONEWEB-0262

Track ONEWEB-0262 now!
10-day predictions
ONEWEB-0262 is classified as:


NORAD ID: 48980
Int'l Code: 2021-061P
Perigee: 1,204.0 km
Apogee: 1,206.0 km
Inclination: 87.9 °
Period: 109.4 minutes
Semi major axis: 7575 km
RCS: Unknown
Launch date: July 1, 2021
Source: United Kingdom (UK)
Launch site: VOSTOCHNY COSMODROME (VOSTO)
aabbcc
Your satellite tracking list
Your tracking list is empty




NASA's NSSDC Master Catalog

Two Line Element Set (TLE):
1 48980U 21060P   22142.91668981  .00043081  00000-0  11217+0 0  9994
2 48980  87.9131 164.5999 0001307  90.6555 258.1639 13.16570040 45352
Source of the keplerian elements: AFSPC